www.pogodaiklimat.ru

Погода и климат >> Архив погоды >> Индия >> Kota


ПОГОДА в Kota

  • Прогноз погоды в Kota
  • Монитор погоды в Kota
  • Климат города

АРХИВ ПОГОДЫ в Kota

Время (UTC), дата Ветер
(напр.,м/с)
 
Видим.   Явления Облачность Т
(С)
Тd
(С)
f
(%)
Тe
(С)
Тes
(С)
Комфортность P
(гПа)
Po
(гПа)
Тmin
(С)
Tmax
(С)
R
(мм)
R24
(мм)
S
(см)
09 18.09 СВ 1 4000 м 1/1 600 м
[Cu hum]
+33.8 +21.1 48 +41 +56 опасность
перегрева
1005.2 1005.0
12 18.09 штиль 0 4000 м 3/0
[Ac trans Ci fib]
+33.4 +19.8 45 +39 +41 очень
душно
1004.2 1004.0 +34.3
15 18.09 штиль 0 4000 м ясно +28.6 +23.4 73 +39 +39 очень
душно
1006.2 1006.0
18 18.09 З 1 4000 м ясно +26.2 +21.4 75 +33 +33 очень
душно
1006.6 1007.0
21 18.09 СЗ 1 4000 м ясно +25.0 +20.7 77 +31 +31 очень
душно
1005.9 1006.0
00 19.09 З 1 4000 м 3/3 600 м
[Sc]
+24.6 +20.6 78 +31 +31 очень
душно
1006.5 1007.0
03 19.09 ЮЗ 1 4000 м 3/1 600 м
[Cu hum Ci fib]
+28.4 +20.5 62 +35 +40 очень
душно
1008.2 1008.0 +24.0 +34.3
06 19.09 С 1 4000 м 3/3 600 м
[Cu hum]
+32.6 +20.7 50 +40 +54 опасность
солнечного
удара
1007.6 1008.0
09 19.09 С 2 4000 м 5/3 600 м
[Cu hum Ac trans]
+34.2 +19.4 42 +40 +48 очень
душно
1004.2 1004.0
12 19.09 СЗ 1 4000 м 1/0
[Ac trans]
+34.2 +19.0 41 +39 +40 очень
душно
1003.2 1003.0 +34.8
15 19.09 СЗ 1 4000 м 3/0
[Ac trans]
+29.2 +22.1 66 +38 +38 очень
душно
1004.9 1005.0
18 19.09 З 1 4000 м 4/1 600 м
[Sc Ac trans]
+26.8 +21.4 72 +34 +34 очень
душно
1006.0 1006.0
21 19.09 СЗ 1 4000 м 4/1 600 м
[Sc Ac trans]
+26.0 +21.2 75 +33 +33 очень
душно
1004.8 1005.0
00 20.09 штиль 0 4000 м 4/1 600 м
[Sc Ac trans]
+25.4 +21.2 78 +32 +32 очень
душно
1005.1 1005.0
03 20.09 штиль 0 4000 м 4/0
[Ac trans]
+29.0 +20.6 61 +36 +41 очень
душно
1006.3 1006.0 +25.0 +34.8
06 20.09 С 2 4000 м 4/0
[Ci fib]
+32.0 +21.0 52 +39 +55 опасность
солнечного
удара
1006.5 1007.0
09 20.09 С 1 4000 м 1/0
[Ci fib]
+35.0 +20.1 42 +41 +56 опасность
перегрева
1003.7 1004.0
12 20.09 С 1 4000 м ясно +34.4 +19.3 41 +40 +41 очень
душно
1002.5 1003.0 +35.3
15 20.09 СВ 1 4000 м 3/0
[Ci fib]
+30.8 +20.3 54 +38 +38 очень
душно
1003.7 1004.0
18 20.09 СВ 1 4000 м 5/0
[Ci fib]
+28.2 +20.0 61 +34 +34 очень
душно
1005.2 1005.0
21 20.09 СВ 1 4000 м 5/0
[Ci fib]
+27.4 +20.1 64 +34 +34 очень
душно
1004.3 1004.0
00 21.09 СВ 1 4000 м 5/0
[Ci fib]
+26.6 +20.2 68 +33 +33 очень
душно
1004.9 1005.0
03 21.09 СВ 1 2000 м мгла 3/0
[Ci fib]
+29.0 +21.6 64 +37 +42 очень
душно
1006.1 1006.0 +25.0 +35.3
06 21.09 В 1 4000 м мгла 5/5 600 м
[Cu hum]
+31.6 +22.9 60 +42 +51 опасность
перегрева
1006.0 1006.0
09 21.09 С 2 4000 м мгла 6/4 600 м
[Sc diur, vesp Ac trans]
+31.4 +22.7 60 +41 +47 опасность
перегрева
1004.2 1004.0
12 21.09 СЗ 1 4000 м мгла 8/5 600 м
[Sc Ac trans]
+31.2 +22.8 61 +41 +41 опасность
перегрева
1002.4 1002.0 +33.3
15 21.09 СВ 1 4000 м {морось} 8/5 600 м
[Sc Ac trans]
+26.0 +23.4 86 +35 +35 очень
душно
1005.5 1006.0 0.0
18 21.09 СВ 1 4000 м слабый дождь {морось} 10/8 600 м
[Sc As op]
+25.6 +24.1 91 +35 +35 очень
душно
1006.1 1006.0 0.8
21 21.09 СВ 2 4000 м слабый дождь 10/8 600 м
[Sc As op]
+25.0 +24.1 95 +34 +34 очень
душно
1004.1 1004.0 1
00 22.09 СВ 2 4000 м {дождь} 10/8 600 м
[Sc As op]
+25.0 +24.1 95 +34 +34 очень
душно
1003.5 1004.0 1
03 22.09 СВ 2 2000 м слабая морось 10/8 600 м
[Sc As op]
+25.4 +23.9 91 +35 +35 очень
душно
1003.9 1004.0 +24.5 +33.3 1
06 22.09 штиль 0 4000 м слабый дождь 10/8 600 м
[Sc As op]
+25.2 +24.6 96 +35 +36 очень
душно
1004.4 1004.0 17
09 22.09 В 2 2000 м мгла {дождь} 9/6 600 м
[Cb calv Ac trans]
+29.0 +25.0 79 +42 +45 опасность
перегрева
1001.5 1002.0 20
12 22.09 В 4 2000 м мгла {дождь} 10/8 600 м
[Sc As op]
+27.0 +23.5 81 +37 +37 очень
душно
1001.7 1002.0 +29.0 21
15 22.09 В 2 2000 м мгла 10/6 600 м
[Sc As op]
+26.0 +23.1 84 +35 +35 очень
душно
1003.6 1004.0 21
18 22.09 СВ 3 2000 м слабая морось 10/8 300 м
[Sc As op]
+25.0 +23.5 100 +34 -127 очень
душно
1005.8 1006.0 21
21 22.09 В 2 2000 м {дождь, морось} 10/8 600 м
[Sc As op]
+25.0 +23.8 93 +34 +34 очень
душно
1005.0 1005.0 21
00 23.09 В 2 2000 м слабая морось 10/8 600 м
[Sc As op]
+24.4 +23.8 96 +33 +33 очень
душно
1004.1 1004.0 21
03 23.09 ЮЗ 1 2000 м слабая морось 10/8 600 м
[Sc As op]
+25.0 +24.4 96 +35 +35 очень
душно
1003.9 1004.0 +23.7 +29.0 22
06 23.09 штиль 0 4000 м в посл. час дождь {морось} 10/8 600 м
[Sc As op]
+25.4 +24.8 96 +36 +37 очень
душно
1004.9 1005.0 3
09 23.09 З 5 4000 м слабый дождь 10/8 600 м
[Sc As op]
+25.2 +24.0 93 +35 +35 очень
душно
1004.3 1004.0 7
12 23.09 З 5 4000 м 10/8 600 м
[Sc As op]
+26.0 +22.4 81 +34 +34 очень
душно
1005.2 1005.0 +26.7 7
15 23.09 З 3 4000 м 9/8 600 м
[Sc Ac trans]
+25.4 +22.7 85 +33 +33 очень
душно
1006.9 1007.0 7
18 23.09 З 3 4000 м 9/6 600 м
[Sc As trans]
+25.2 +23.4 90 +34 +34 очень
душно
1007.5 1008.0 7
21 23.09 З 4 4000 м слабая морось 10/8 600 м
[Sc As trans]
+25.0 +24.1 95 +34 +34 очень
душно
1006.2 1006.0 8
00 24.09 З 3 4000 м {морось} 8/6 600 м
[Sc Ac trans]
+24.4 +23.2 93 +33 +33 очень
душно
1006.6 1007.0 8
03 24.09 З 5 4000 м 9/3 600 м
[Sc diur, vesp Ac trans Ci sp]
+26.4 +22.9 81 +35 +36 очень
душно
1008.4 1008.0 +23.6 +26.7 8
06 24.09 З 5 4000 м 8/5 600 м
[Sc Ac trans]
+29.6 +23.5 70 +40 +43 очень
душно
1008.5 1009.0
09 24.09 З 3 4000 м 9/5 600 м
[Sc diur, vesp Ac trans]
+31.6 +22.2 58 +41 +43 опасность
перегрева
1006.7 1007.0
12 24.09 З 1 4000 м 6/3 600 м
[Sc Ac trans]
+29.8 +24.1 72 +42 +42 опасность
перегрева
1006.0 1006.0 +32.5
15 24.09 ЮЗ 1 4000 м 6/4 600 м
[Sc Ac trans]
+27.8 +24.6 83 +39 +39 очень
душно
1008.0 1008.0
18 24.09 СЗ 2 4000 м 6/4 600 м
[Sc Ac trans]
+26.2 +23.9 87 +36 +36 очень
душно
1009.0 1009.0
21 24.09 З 2 4000 м 6/4 600 м
[Sc Ac trans]
+25.6 +23.9 90 +35 +35 очень
душно
1007.7 1008.0
00 25.09 штиль 0 4000 м 6/4 600 м
[Sc Ac trans]
+25.0 +23.5 91 +34 +34 очень
душно
1009.2 1009.0
03 25.09 штиль 0 2000 м 3/0
[Ci fib]
+27.2 +24.0 83 +38 +43 очень
душно
1010.0 1010.0 +24.0 +32.5
06 25.09 СЗ 1 4000 м мгла 3/3 600 м
[Cu hum]
+32.6 +23.1 57 +43 +56 опасность
перегрева
1009.5 1010.0

 

Местоположение метеостанции Kota (Rajasthan, Индия): широта 25.15 долгота 75.85 высота над уровнем моря 274 м.

В архиве по умолчанию представлена погода в Kota за последнюю неделю. Архивные данные за месяц целиком и за предыдущие месяцы, начиная с января 2011 года, Вы можете получить, выбрав интересующий диапазон дат из раскрывающегося списка и нажав кнопку "Ввод!".


*Определитесь, кто Вы:
робот инопланетянин человек

Внимание! Время в таблицах - всемирное. Для получения местного времени необходимо прибавить поправку, которая в Kota равна 5.5 ч.

Смотрите также архив погоды в соседних городах и на ближайших метеорологических станциях:

Погода в Sheopur (Madhya Pradesh, Индия) (101 км)
Погода в Bhilwara (Rajasthan, Индия) (125 км)
Погода в Chittorgarh (Rajasthan, Индия) (127 км)
Погода в Rajgarh (Madhya Pradesh, Индия) (155 км)
Погода в Guna (Madhya Pradesh, Индия) (158 км)
Погода в Shivpuri (Madhya Pradesh, Индия) (182 км)
Погода в Jaipur (Rajasthan, Индия) (186 км)
Погода в Ajmer (Rajasthan, Индия) (190 км)
Погода в Shajapur (Madhya Pradesh, Индия) (197 км)
Погода в Maharana Pratap Airport (Rajasthan, Индия) (207 км)

Пояснения к столбцам:

Ветер - указаны скорость ветра в м/с - средняя за 10 мин, порывы в срок и между сроками (в фигурных скобках) и направление, откуда дует ветер: С - северный, СВ - северо-восточный, В - восточный, ЮВ - юго-восточный, Ю - южный, ЮЗ - юго-западный, З - западный, СЗ - северо-западный.
Видимость - горизонтальная дальность видимости в метрах или километрах. При видимости от 1 до 10 км при отсутствии осадков обычно наблюдается дымка, при ухудшении видимости до 1 км и менее - туман. В сухую погоду видимость может ухудшаться дымом, пылью или мглою.
Явления - указаны атмосферные явления, наблюдавшиеся в срок или в последний час перед сроком; фигурными скобками обозначены явления, наблюдавшиеся между сроками (за 1-3 часа до срока); квадратными скобками обозначены град или гололедные отложения с указанием их диаметра в мм.
Облачность - указаны через наклонную черту общая и нижняя облачность в баллах и высота нижней границы облаков в метрах; квадратными скобками обозначены формы облаков: Ci - перистые, Cs - перисто-слоистые, Cc - перисто-кучевые, Ac - высококучевые, As - высокослоистые, Sc - слоисто-кучевые, Ns - слоисто-дождевые, Cu - кучевые, Cb - кучево-дождевые. Подробнее классификацию облаков см. в Атласе облаков (PDF).
T - Температура воздуха - температура, измеренная на высоте 2 м над землей.
Td - Температура точки росы - температура, при понижении до которой содержащийся в воздухе водяной пар достигнет насыщения.
f - Относительная влажность воздуха - влажноcть воздуха, измеренная на высоте 2 м над землей.
Te - Эффективная температура - температура, которую ощущает одетый по сезону человек в тени. Характеристика душности погоды. При расчете учитывается влияние влажности воздуха и скорости ветра на теплоощущения человека.
Tes - Эффективная температура на солнце - температура, которую ощущает человек, с поправкой на солнечный нагрев. Характеристика знойности погоды. Зависит от высоты солнца над горизонтом, облачности и скорости ветра. Ночью, в пасмурную погоду, а также при ветре 12 м/с и более поправка равна нулю.
P - Атмосферное давление - приведенное к уровню моря атмосферное давление.
Po - Атмосферное давление - измеренное на уровне метеостанции атмосферное давление.
Tmin - Минимальная температура - минимум температуры воздуха на высоте 2 м над землей.
Tmax - Максимальная температура - максимум температуры воздуха на высоте 2 м над землей.
R - Количество осадков - Количество выпавших осадков за период времени, мм. При наведении курсора мыши на число - период времени, за который выпало указанное количество осадков.
R24 - Количество осадков - Количество выпавших осадков за 24 часа, мм.
S - Снежный покров - Высота снежного покрова, см. При наведении курсора мыши на число - состояние снежного покрова и степень покрытия местности в баллах.